JBU7532 KLAX-KLAX

Flight info

Callsign JBU7532
Flight time N/A
Altitude 13000
Route DCT
Aircraft A20N/M-SDE2E3FGHIRWXY/LB1

Departure

Time 2026-04-26 04:43
Airport Los Angeles International Airport (KLAX)

Arrival

Time N/A
Airport Los Angeles International Airport (KLAX)
Time Latitude Longitude Altitude Speed Heading
2026-04-26 04:43 33.84676 -118.57796 6080 ft 269 kts 201°
2026-04-26 04:43 33.82825 -118.58072 6128 ft 274 kts 175°
2026-04-26 04:43 33.81026 -118.57284 6136 ft 279 kts 147°
2026-04-26 04:44 33.79709 -118.55586 6133 ft 282 kts 120°
2026-04-26 04:44 33.79181 -118.53617 6136 ft 283 kts 95°
2026-04-26 04:44 33.79318 -118.51256 6139 ft 284 kts 81°
2026-04-26 04:44 33.79599 -118.48918 6138 ft 283 kts 81°
2026-04-26 04:45 33.79881 -118.46601 6141 ft 283 kts 81°
2026-04-26 04:45 33.80169 -118.44225 6138 ft 283 kts 81°
2026-04-26 04:45 33.80451 -118.41891 6140 ft 283 kts 81°
2026-04-26 04:45 33.80734 -118.39556 6119 ft 283 kts 81°
2026-04-26 04:46 33.81020 -118.37204 5834 ft 283 kts 81°
2026-04-26 04:46 33.81308 -118.34853 5358 ft 284 kts 81°
2026-04-26 04:46 33.81589 -118.32551 5230 ft 277 kts 81°
2026-04-26 04:46 33.81872 -118.30249 5118 ft 278 kts 81°
2026-04-26 04:47 33.82154 -118.27957 5012 ft 277 kts 81°
2026-04-26 04:47 33.82434 -118.25671 4981 ft 276 kts 81°
2026-04-26 04:47 33.82715 -118.23380 4978 ft 277 kts 81°
2026-04-26 04:47 33.82997 -118.21091 4973 ft 277 kts 81°
2026-04-26 04:48 33.83561 -118.16527 4974 ft 276 kts 82°
2026-04-26 04:48 33.83835 -118.14333 4977 ft 273 kts 82°
2026-04-26 04:48 33.84120 -118.12028 4977 ft 276 kts 82°
2026-04-26 04:49 33.84399 -118.09774 4980 ft 276 kts 82°
2026-04-26 04:49 33.84681 -118.07491 4946 ft 276 kts 82°
2026-04-26 04:49 33.84959 -118.05206 4950 ft 277 kts 82°
2026-04-26 04:49 33.85234 -118.02914 4977 ft 277 kts 82°
2026-04-26 04:50 33.85749 -118.00703 4974 ft 276 kts 66°
2026-04-26 04:50 33.86787 -117.98777 4959 ft 275 kts 43°
2026-04-26 04:50 33.88426 -117.97569 4751 ft 274 kts 15°
2026-04-26 04:50 33.90269 -117.97283 4506 ft 270 kts
2026-04-26 04:51 33.92144 -117.97157 4164 ft 269 kts
2026-04-26 04:51 33.94001 -117.97061 3788 ft 267 kts 358°
2026-04-26 04:51 33.95778 -117.97542 3420 ft 261 kts 330°
2026-04-26 04:51 33.97070 -117.99000 3159 ft 252 kts 298°
2026-04-26 04:52 33.97764 -118.00885 3041 ft 241 kts 291°
2026-04-26 04:52 33.98238 -118.02832 2959 ft 243 kts 274°
2026-04-26 04:52 33.98018 -118.04810 3090 ft 235 kts 253°
2026-04-26 04:52 33.97454 -118.06635 2821 ft 228 kts 245°
2026-04-26 04:53 33.96892 -118.08312 2427 ft 205 kts 248°
2026-04-26 04:53 33.96459 -118.09912 1679 ft 200 kts 255°
2026-04-26 04:53 33.96206 -118.11552 914 ft 196 kts 262°